Погода в Новом

Россия / Ивановская область     57°21′32″N   41°27′41″E
темп.,
°C
ветер,
м/с
пор.,
м/с
влажн.,
%
обл.,
%
осадки,
мм/ч
давл.,
гПа
погр.,
м
7 мая, пт
пт700:00+10юз71284100 0.1 1006895
03:00+7юз3788100 0.3 1007298
06:00+7юз4888100 0.0 1008399
09:00+10зюз4568100 0.0 10091070
12:00+11зюз5753100 0.0 10101682
15:00+12з6848100 0.1 10111941
18:00+10сз46615 0.3 1012378
21:00+6ююв33700 0.3 101427
8 мая, сб
сб800:00+6ю3472100 0.0 101444
03:00+5ююв477622 0.0 1015114
06:00+6ююв5117499 0.0 1014254
09:00+12ююв71256100 0.0 10131330
12:00+11ююв81366100 0.1 10111365
15:00+12юв91664100 0.3 10081679
18:00+9ююв81583100 2.1 10061358
21:00+9ююв81691100 3.7 1004906
9 мая, вс
вс900:00+9ю61296100 0.4 1003714
03:00+7юз71389100 0.9 1005864
06:00+9ююз71094100 0.5 1004738
09:00+3з71496100 0.9 1010703
12:00+6зсз71082100 0.0 10141115
15:00+8сз6969100 0.1 10171470
18:00+9сз496590 0.0 10191485
21:00+4зсз33790 0.0 102232
10 мая, пн
пн1000:00+3сз33820 0.0 102427
03:00+2зсз33840 0.0 102725
06:00+5зсз22754 0.0 102970
09:00+11зюз23545 0.0 1030542
12:00+14зюз344216 0.0 10301729
15:00+15з4541100 0.0 10291896
18:00+14з246060 0.0 1029265
21:00+9зюз227812 0.0 103016
11 мая, вт
вт1100:00+7зюз2278100 0.0 103114
03:00+7юз2282100 0.0 103223
06:00+8ююз247891 0.0 1033113
09:00+14юз345982 0.0 1033493
12:00+17ююз4452100 0.0 1032960
15:00+19юз234783 0.0 10311388
18:00+18ююв226129 0.0 1030100
21:00+12ю33709 0.0 103031